DMSP 5D-2 F8 DEB

基本信息
目录编号:
60251
目录名称:
DMSP 5D-2 F8 DEB
国际标识:
1987-053J
轨道中心:
EARTH
物体状态:
在轨
发射日期:
1987-06-20 UTC
轨道信息
数据来源: 国际轨道数据
星历时间: 2026-07-13T20:16:05+0800
半长轴: 7179.249km
偏心率: 0.0016912
轨道倾角: 98.728°
近地点辐角: 39.217°
升交点赤经: 26.622°
平近点角: 321.023°
近地点: 788.97km
远地点: 813.254km
周期: 100.897分钟
每日圈数: 14.271982
详细信息
发射场:
AFWTR
轨道高度:
LEO
数据来源:
AOE Integration Group
参考系:
TEME
时间系统:
UTC
历元类型:
SGP4
2D轨道图
3D轨道图
轨道高度分析图
轨道倾角分析图
轨道综合分析图
查看轨道综合分析图